Theta_e
329 328 327 327 328 328 328 328 328 328 328 329 329 329 329 330 330 329 330 321 323 329 333 336 337 337 336 336 337 337 336 337 336 335 334 334 334 333 334 335 334 334 333
328 328 328 328 328 329 329 328 328 328 328 328 328 329 329 329 329 329 329 328 323 326 329 332 334 334 335 335 336 336 336 335 336 335 334 332 333 334 334 334 334 333 332
330 329 329 329 329 328 327 327 327 326 327 329 325 327 329 329 327 325 324 325 325 322 323 327 329 331 333 334 335 335 334 334 334 333 332 332 332 332 332 333 333 333 332
330 330 329 329 330 329 328 328 327 327 328 329 327 326 324 322 321 321 322 323 324 324 324 323 325 325 326 329 331 333 333 333 332 331 330 328 328 330 331 331 332 332 332
329 330 330 331 331 330 328 326 326 325 323 321 319 319 319 319 319 319 320 321 322 322 322 320 316 316 319 324 326 328 331 330 330 328 327 327 328 328 329 329 331 332 332
322 324 323 322 323 322 320 319 319 319 318 317 316 316 317 318 319 320 319 318 319 318 318 318 318 317 314 318 321 324 326 326 327 325 324 325 325 325 324 327 328 331 332
317 317 317 316 316 315 315 315 316 314 314 315 315 313 316 317 318 317 317 317 317 315 315 315 316 315 315 314 316 319 322 323 323 322 322 321 322 323 323 325 327 328 327
313 313 313 312 311 311 311 311 311 311 312 314 309 311 308 310 315 314 315 315 315 314 313 313 313 312 313 313 311 314 316 317 319 319 318 319 319 321 322 324 325 326 327
307 309 308 308 307 308 306 308 309 309 308 312 311 310 305 303 306 311 311 312 312 311 311 311 310 310 309 309 309 309 309 310 313 314 315 316 316 318 320 322 323 325 326
300 302 302 303 303 303 302 303 304 305 306 304 307 310 307 307 301 300 310 308 308 306 307 308 308 308 307 307 305 302 303 305 307 309 310 312 315 316 317 319 321 325 325
297 297 298 298 298 299 299 299 299 300 301 302 301 301 301 301 306 298 296 300 301 302 303 305 306 306 306 305 304 302 301 303 304 305 306 308 311 313 315 316 320 322 322
295 294 295 295 295 295 295 295 296 296 296 296 296 296 296 295 295 295 293 294 294 297 301 300 303 305 305 303 299 297 298 301 303 304 304 305 306 309 311 313 316 319 320
292 291 292 292 292 292 292 293 293 293 293 293 293 293 294 294 294 294 293 292 291 294 295 299 301 303 300 300 300 295 297 299 301 302 302 303 305 307 308 310 313 316 317
290 290 290 290 290 290 290 290 291 291 291 290 290 290 290 291 291 291 290 289 287 290 293 294 299 299 298 298 297 295 298 297 298 300 301 302 303 305 306 308 310 313 314
289 288 288 288 288 288 288 288 288 288 288 288 288 288 288 288 289 289 289 289 288 285 286 292 293 296 296 297 297 297 296 295 296 297 298 299 300 302 304 307 307 310 313
286 286 286 286 286 286 286 287 287 286 286 286 286 285 286 286 286 287 287 287 287 286 283 289 290 291 292 291 292 294 294 292 293 294 295 296 298 299 302 304 305 307 310
284 284 284 284 284 284 285 285 285 285 284 284 284 284 283 284 284 284 284 285 284 285 282 285 287 288 288 288 289 290 291 290 291 291 292 294 295 296 299 301 302 303 305
283 283 283 283 283 283 284 284 284 284 282 282 282 282 282 282 282 282 282 282 282 282 281 279 282 283 284 285 286 287 287 288 288 289 291 292 294 294 295 298 300 301 302
281 281 281 281 281 282 283 284 284 283 282 282 282 281 281 281 281 281 281 281 281 282 281 281 280 283 283 284 284 285 285 286 286 287 289 289 290 292 293 296 298 300 299
280 280 280 280 281 282 283 283 283 282 281 281 282 281 281 281 281 281 281 281 281 281 281 281 281 281 282 283 284 282 282 285 284 285 286 287 288 289 290 292 295 297 297
279 279 279 279 280 281 283 283 282 281 280 280 280 280 280 281 281 282 281 281 281 280 280 280 279 279 279 280 279 281 281 282 283 284 283 285 285 286 288 289 291 293 295
278 278 278 278 278 279 283 283 283 280 280 279 279 279 280 280 280 281 282 283 282 280 278 278 278 277 278 279 280 279 280 279 277 284 281 281 284 284 286 287 289 291 294
277 277 277 277 277 277 282 283 282 280 279 279 278 278 278 278 279 279 280 281 280 280 281 279 277 278 278 280 280 279 279 279 278 280 280 278 282 281 284 285 287 288 291
275 275 276 276 276 277 280 282 281 279 279 278 279 278 277 277 277 279 278 277 277 277 277 278 278 279 280 282 282 280 280 280 280 280 279 276 280 280 282 282 284 287 288
275 274 275 275 275 275 279 280 280 278 277 277 278 278 277 276 278 280 276 275 275 275 277 279 280 281 281 281 281 278 277 276 276 278 278 277 278 277 278 279 280 284 286
274 273 274 274 274 274 277 279 280 278 276 277 277 277 277 277 279 278 275 274 271 272 274 273 273 274 276 276 279 277 276 273 274 273 276 275 275 275 275 277 276 278 279
Wind_Speed
4 3 4 4 5 4 4 5 5 5 6 7 7 8 9 10 10 6 6 10 13 17 18 19 20 21 21 23 23 22 21 21 19 18 17 15 16 17 17 16 17 16 14
4 4 4 5 5 4 5 5 6 5 5 6 7 7 9 8 9 10 8 10 10 14 16 18 19 19 20 21 21 21 20 20 18 18 16 13 13 14 16 17 17 17 16
5 5 5 5 5 4 4 4 5 4 5 5 6 5 7 9 9 11 10 8 9 9 11 13 15 15 17 18 19 19 19 19 19 17 16 14 16 17 18 18 18 18 19
4 5 5 5 4 4 3 4 3 5 5 5 6 8 8 9 10 10 9 8 7 7 6 9 12 13 15 15 16 17 18 18 17 17 16 17 18 18 18 18 20 21 22
5 3 3 4 4 3 4 4 4 4 6 7 7 9 8 8 8 6 7 7 7 6 5 7 9 9 12 15 17 18 18 18 17 16 16 17 17 19 20 20 21 21 24
8 7 6 8 6 5 6 6 6 5 6 6 8 8 9 8 4 3 7 5 4 5 6 7 6 6 9 13 14 16 17 18 18 18 18 19 19 20 21 21 22 24 26
9 9 6 7 6 7 7 8 5 7 5 7 4 9 6 5 1 5 6 5 5 6 6 6 5 6 6 13 13 15 17 18 18 18 18 18 19 20 22 22 23 16 15
10 9 9 8 9 7 9 9 8 4 3 3 3 4 4 4 3 10 4 5 5 5 5 7 8 9 8 7 9 15 16 17 19 20 20 20 20 20 21 22 23 19 16
10 10 9 8 8 6 5 5 6 7 4 2 7 2 4 3 9 5 11 4 7 6 7 9 9 9 8 7 9 11 14 16 17 18 19 20 21 22 22 23 23 23 17
10 10 9 8 7 5 7 6 5 5 4 5 4 3 4 5 5 7 3 11 8 10 13 9 10 10 9 8 8 10 13 15 16 17 19 19 20 21 22 22 23 20 18
11 10 9 9 8 5 6 7 7 7 4 4 4 4 4 7 3 5 10 6 9 9 9 8 9 10 9 7 6 6 12 15 17 18 20 21 21 22 22 22 21 13 11
7 10 9 8 8 8 9 7 7 8 7 6 5 5 4 4 7 6 8 12 14 8 8 9 7 7 6 6 7 9 11 15 17 19 20 21 21 21 22 22 22 19 15
5 9 9 9 8 8 8 8 8 8 8 7 7 5 5 5 4 6 7 9 10 11 6 4 6 6 5 5 6 10 12 17 20 20 21 23 22 20 21 21 21 19 13
5 7 7 8 8 9 9 8 6 6 7 7 9 8 6 5 5 5 5 9 11 9 10 6 5 4 4 7 11 12 10 17 19 22 22 22 23 21 21 19 20 20 11
5 6 8 8 9 10 10 9 7 9 8 8 8 8 6 5 6 5 4 4 5 10 15 4 5 4 9 8 9 12 15 17 22 23 22 21 22 21 21 20 19 19 19
8 9 9 9 10 10 9 9 7 9 8 7 7 9 8 7 7 6 6 5 5 9 14 10 11 14 12 10 12 12 14 19 19 22 22 22 21 21 21 21 19 20 18
8 9 8 8 9 8 8 8 8 9 10 10 10 10 10 10 8 7 7 6 7 7 13 13 12 14 17 16 14 13 12 13 11 20 22 21 21 21 21 21 20 20 21
7 8 7 7 7 8 8 10 10 10 11 11 11 11 11 9 11 10 8 10 8 9 10 21 15 14 17 17 16 16 12 10 12 16 22 22 21 22 21 21 20 18 19
7 7 7 8 8 7 8 8 8 9 9 9 9 10 10 9 9 8 10 9 9 9 10 12 16 13 13 12 14 14 13 13 9 17 21 22 20 20 21 21 20 16 12
6 7 7 7 7 6 7 7 8 9 9 9 9 8 10 11 11 12 11 11 10 10 10 11 13 14 13 13 12 14 14 10 12 10 16 17 18 17 18 20 20 15 10
6 6 6 6 6 5 7 8 7 8 8 8 9 10 10 12 16 16 9 11 12 10 11 11 12 13 13 12 13 13 14 14 12 12 9 8 7 8 8 12 12 14 15
5 5 7 6 7 5 12 12 9 6 7 8 9 10 10 10 14 18 19 23 20 14 16 13 14 15 19 15 12 13 14 11 13 6 4 10 9 9 8 6 15 19 18
4 5 6 6 6 5 11 12 12 6 7 8 9 9 10 9 12 13 18 21 19 23 22 18 18 17 20 18 15 16 15 13 13 10 8 13 7 10 8 8 17 19 21
4 4 5 5 5 4 11 13 14 8 7 8 8 10 11 13 14 17 18 17 16 15 15 13 16 18 19 17 14 16 20 18 13 8 7 10 5 8 7 7 15 17 19
3 4 4 5 5 6 12 14 11 7 8 9 9 10 11 13 20 28 19 19 19 16 16 26 29 32 32 33 29 17 14 9 11 8 2 5 5 4 4 7 6 13 16
3 3 3 3 5 7 11 12 12 6 8 8 9 10 14 17 25 29 18 16 17 18 19 20 16 17 18 18 24 14 9 9 9 7 2 4 3 4 4 1 5 5 7
Wind_Direction
282 293 291 296 294 299 294 295 293 299 304 305 300 297 299 299 296 293 294 276 271 284 294 300 305 308 308 308 304 301 299 297 295 296 298 299 293 291 287 282 280 267 257
271 283 294 292 288 294 296 294 294 296 290 285 289 289 288 292 294 295 296 298 274 275 288 303 309 313 312 310 313 313 314 313 310 310 304 303 300 296 292 284 276 266 253
270 277 282 285 297 291 276 268 280 272 276 287 282 287 301 304 305 305 307 307 310 293 287 306 317 321 318 318 320 322 320 319 322 327 329 325 316 311 305 293 279 264 248
294 290 295 298 302 302 302 302 307 302 325 332 322 314 307 303 306 313 319 317 318 318 319 332 336 339 336 335 334 332 332 332 334 335 343 335 323 317 309 311 294 272 250
350 310 321 339 344 11 30 4 356 346 334 329 323 310 308 305 315 324 326 331 339 335 332 339 346 346 345 348 344 339 338 336 339 340 335 327 324 322 319 314 305 283 255
37 49 50 38 20 36 28 10 353 357 352 354 326 318 312 311 325 336 340 338 345 343 337 335 339 338 332 342 338 337 334 334 335 333 331 327 323 321 319 311 311 303 271
43 46 51 45 35 45 34 23 355 5 23 356 348 336 322 321 55 345 340 337 348 349 335 329 333 329 329 330 331 330 332 329 324 321 321 320 321 320 319 309 312 322 354
41 46 45 44 41 41 36 30 25 357 353 34 359 288 325 327 322 326 307 329 329 333 333 324 324 325 325 319 320 325 328 329 324 322 318 318 318 315 315 315 309 299 282
45 47 48 47 46 46 47 35 18 15 343 352 348 270 331 309 333 308 313 309 321 319 318 319 307 311 313 314 314 320 326 324 323 321 317 317 318 316 316 313 312 294 270
41 40 41 42 45 35 34 26 16 8 357 347 336 17 323 307 306 310 294 319 321 325 313 314 314 314 309 307 318 316 320 322 321 319 313 310 311 312 312 309 309 307 267
40 34 35 34 35 30 29 25 20 14 12 346 359 343 338 319 315 320 304 318 304 308 296 301 308 304 302 314 320 322 323 325 323 319 315 310 313 314 313 310 308 296 164
39 29 26 29 27 25 22 14 17 20 15 9 0 359 347 340 330 327 310 319 307 302 312 295 292 287 309 330 331 328 328 324 324 319 314 308 307 308 309 309 306 298 252
34 22 23 23 24 22 19 17 19 19 15 12 6 354 354 339 325 315 303 307 299 306 301 301 291 301 334 346 343 335 325 329 323 319 313 310 304 304 306 306 305 298 279
41 23 25 28 24 24 21 21 24 25 13 14 15 11 351 355 351 344 322 321 311 282 304 327 299 357 12 348 321 320 323 315 315 313 311 311 307 303 302 295 302 294 242
36 30 31 29 26 26 24 22 29 20 17 12 18 7 5 355 348 348 332 312 300 308 309 334 317 12 330 321 313 317 312 310 308 307 306 305 303 301 296 293 294 295 270
34 34 30 29 30 31 25 26 26 19 17 15 13 4 5 357 350 344 342 324 298 286 288 330 310 315 322 311 310 305 305 303 303 301 300 298 297 295 291 290 288 289 282
32 36 33 32 32 32 28 30 26 19 18 12 10 8 4 355 353 348 340 330 317 306 289 305 315 320 317 317 314 309 302 301 299 298 298 296 295 291 287 282 279 281 283
39 36 36 40 35 32 27 27 22 18 15 9 5 2 359 358 357 351 345 334 324 317 304 305 315 317 315 316 312 308 306 298 301 300 304 300 293 290 285 283 275 271 271
43 40 38 36 29 27 22 21 20 13 5 359 355 350 346 346 352 344 340 332 325 320 310 299 305 308 307 310 310 306 306 300 293 295 301 298 290 287 284 283 283 261 282
45 38 36 32 23 20 20 18 18 6 1 356 354 350 351 346 339 340 337 332 322 313 304 297 301 306 307 312 307 310 308 306 305 298 290 283 288 285 286 283 282 274 259
34 31 34 31 25 32 20 15 13 1 348 347 347 351 349 338 346 340 335 329 324 317 311 306 300 300 303 311 311 314 303 307 307 294 300 300 313 308 295 292 287 283 280
27 28 27 19 24 18 12 8 8 351 344 349 350 348 340 339 340 336 330 330 329 323 314 311 306 302 302 303 303 305 298 299 304 284 312 299 298 296 287 282 284 283 274
17 20 19 22 15 355 5 1 7 355 344 344 346 346 348 343 338 331 330 332 326 317 313 308 302 300 298 297 295 295 295 288 277 283 297 290 289 281 283 276 282 286 280
11 9 10 10 360 358 357 1 9 354 342 343 342 350 343 342 342 334 335 329 320 319 312 308 301 297 296 288 297 304 300 293 273 268 259 279 299 276 285 282 287 285 287
2 358 358 353 359 357 0 1 4 352 345 342 348 346 345 339 331 341 335 322 320 317 311 312 311 311 309 306 301 299 290 274 277 293 262 274 289 292 277 282 290 289 295
358 342 339 357 360 356 350 353 360 349 343 343 343 335 336 335 336 339 330 327 320 315 325 325 317 314 311 301 305 307 301 293 296 295 18 294 332 321 295 308 319 324 326